Location: Mariposa
(37.4849°N, 119.9663°W)
Time: 10:16:55
(UTC+00:00)

H-2A R/B - Pass Details

Date: 03 August 2024
Orbit: 731 x 832 km, 98.2° (Epoch: 10 September)

Event Time Altitude Azimuth Distance (km) Brightness Sun altitude
Rises 12:16:27 0° 11° (N) 3,166 5.9 -9.7°
Reaches altitude 10° 12:18:44 10° 11° (N) 2,245 5.0 -9.3°
Maximum altitude 12:23:39 83° 284° (WNW) 753 1.9 -8.4°
Drops below altitude 10° 12:28:39 10° 197° (SSW) 2,273 4.0 -7.6°
Sets 12:30:57 0° 196° (SSW) 3,208 4.8 -7.2°
